Preview of NWS' New Version of Forecast
This preview is not operational and should not be used for support decisions.

Regional Weather Roundup (RWR)

Issued by National Weather Service (NWS)

                            
000
ASUS43 KTOP 172308
RWRKS 

WEATHER ROUNDUP FOR KANSAS
NATIONAL WEATHER SERVICE GOODLAND KS
600 PM CDT SAT AUG 17 2019

NOTE:  "FAIR" INDICATES FEW OR NO CLOUDS BELOW 12,000 FEET WITH NO
SIGNIFICANT WEATHER AND/OR OBSTRUCTIONS TO VISIBILITY.

KSZ001>006-013>018-027>032-041>047-180000-
NORTHWEST KANSAS
  
CITY           SKY/WX    TMP DP  RH WIND       PRES   REMARKS
GOODLAND       TSTM      64  57  78 W40G59    29.88R                  
HAYS           SUNNY     91  73  55 S15       29.71F HX  99           
HILL CITY      SUNNY     91  69  48 SE9       29.72S HX  96           
RUSSELL        SUNNY     89  72  56 S17       29.71F HX  96           
$$

KSZ061>065-074>080-084>089-180000-
SOUTHWEST KANSAS
  
CITY           SKY/WX    TMP DP  RH WIND       PRES   REMARKS
DODGE CITY     SUNNY     98  65  33 S15       29.73F HX 101           
ELKHART        MOSUNNY  101  56  22 SE9       29.77F HX 100           
GARDEN CITY    SUNNY     95  60  31 S12       29.73F HX  95           
GREAT BEND     SUNNY     90  74  59 S15       29.72F HX  99           
LIBERAL        SUNNY    101  55  21 SW8       29.74F HX  99           
PRATT          SUNNY     94  68  42 SE14G23   29.73F HX  99           
$$

KSZ066>073-081>083-090>101-180000-
SOUTHEAST KANSAS
  
CITY           SKY/WX    TMP DP  RH WIND       PRES   REMARKS
CHANUTE        MOSUNNY   86  75  69 S13       29.78F HX  95           
COFFEYVILLE    SUNNY     87  77  72 S12       29.78F HX  99           
HUTCHINSON     SUNNY     90  73  57 S18G29    29.74F HX  98           
MEDICINE LODGE   N/A     96  72  45 S15G24    29.69F HX 104           
NEWTON         SUNNY     85  75  72 S20G25    29.76F                  
PARSONS        SUNNY     87  78  74 S8        29.80F HX 100           
WICHITA INTL   MOSUNNY   90  75  61 SE17G26   29.74F HX 100           
WICHITA JABRA  SUNNY     87  75  67 S15G28    29.75F HX  96           
WICHITA MCCONL SUNNY     89  72  57 SE18      29.75F HX  96           
WINFIELD       SUNNY     88  76  67 SE13G23   29.76F HX  99           
$$

KSZ007>012-019>026-033>040-048>060-102>105-180000-
NORTHEAST KANSAS
  
CITY           SKY/WX    TMP DP  RH WIND       PRES   REMARKS
CONCORDIA      SUNNY     88  73  61 S13       29.73S HX  95           
EMPORIA        SUNNY     86  73  65 SE13      29.77F                  
LAWRENCE       SUNNY     90  74  59 SE9       29.77S HX  99           
MANHATTAN      SUNNY     90  71  53 S9        29.73F HX  96           
MARYSVILLE     SUNNY     88  73  62 S7        29.75S HX  96           
OLATHE IND     SUNNY     86  71  60 SE12      29.80F                  
OLATHE EXE     SUNNY     85  72  65 S10       29.80F                  
SALINA         SUNNY     89  72  56 S12       29.73F HX  96           
TOPEKA BILLARD SUNNY     89  73  59 S12       29.76S HX  97           
TOPEKA FORBES  SUNNY     89  73  59 S12       29.77S HX  97           
$$